Theta_e
290 288 287 286 289 289 289 287 287 285 287 286 283 281 282 282 282 282 283 286 285 288 287 286 286 286 289 291 293 294 292 290 290 291 292 292 292 293 293 293 293 293 295 297 296 295 296 296 296 297 299 302 305 308 311 312 314 316 316 316 316 319 321 323 325 326 327 326 327 327 327 327 329 329 330 331 333 334 334 334 333 332 332 331 329 327
292 287 287 287 288 289 287 285 286 286 285 287 283 284 282 283 284 286 288 287 286 289 285 281 284 288 289 291 291 292 289 291 293 292 292 293 293 293 293 293 294 294 294 294 296 296 295 295 295 294 296 297 299 301 306 309 311 314 315 315 317 317 319 321 324 325 326 328 327 326 326 326 327 328 327 328 329 330 332 333 333 333 334 333 330 326
288 287 288 288 286 285 284 285 285 286 284 282 284 282 283 283 282 284 285 286 286 288 284 282 286 289 291 292 292 291 292 293 291 291 293 293 293 293 293 293 293 293 294 293 292 292 293 293 293 293 295 296 298 299 302 306 308 310 313 315 316 316 318 319 322 324 324 326 327 327 325 326 325 325 327 328 325 326 329 329 330 330 332 333 331 329
285 286 288 286 287 288 284 284 286 285 283 282 282 284 282 282 286 285 286 287 285 286 287 285 285 289 289 287 288 289 290 290 289 289 290 290 292 293 294 293 293 293 293 293 292 293 292 291 291 291 292 295 296 297 299 302 305 308 311 313 314 315 316 318 319 320 323 323 323 322 319 320 322 321 318 321 322 324 325 327 328 331 332 333 332 332
286 286 286 286 287 289 286 285 287 285 285 283 283 282 282 284 284 283 285 284 283 284 283 284 285 286 282 283 283 286 283 284 285 284 285 287 289 291 291 290 292 292 293 293 293 293 292 291 292 293 292 292 295 297 299 301 304 306 309 311 313 314 315 317 317 318 319 318 317 313 312 313 314 314 316 318 319 321 322 325 325 328 330 331 331 332
287 286 285 287 286 286 286 285 285 287 283 286 284 284 284 284 285 284 284 284 280 285 282 283 283 279 280 282 282 284 284 287 286 286 287 288 287 287 287 289 289 289 291 292 294 293 292 292 292 292 292 293 294 296 298 300 303 305 307 309 311 312 313 315 315 317 317 319 319 315 315 315 314 315 313 316 319 319 319 321 326 325 325 325 326 326
285 286 286 288 287 286 286 286 285 287 283 284 286 285 283 285 285 284 284 283 281 281 284 281 282 277 281 284 285 282 282 286 287 285 286 287 289 289 289 290 289 288 289 288 288 289 290 292 292 294 294 295 294 296 295 296 300 303 305 308 310 312 312 313 314 315 316 317 318 318 318 319 317 317 317 318 319 322 322 322 322 323 322 323 324 324
286 286 285 285 286 286 284 284 286 287 285 284 284 283 285 285 285 284 284 284 281 281 285 280 279 279 280 284 283 282 283 286 287 285 288 290 290 291 292 292 291 290 287 287 287 288 289 290 292 295 295 295 296 295 295 298 299 303 304 306 308 309 310 311 312 313 316 317 316 316 317 318 318 318 318 317 317 315 316 318 320 320 320 320 321 322
286 286 285 285 284 283 286 284 285 287 285 283 283 284 285 285 282 282 282 280 280 282 282 279 284 281 278 282 283 282 286 285 285 285 288 290 290 291 293 293 293 292 288 286 288 292 293 295 295 294 295 295 294 294 296 297 299 300 301 303 304 306 308 307 310 312 313 316 316 315 316 315 316 316 316 309 308 313 311 313 314 316 318 318 318 318
288 287 288 289 288 285 284 284 283 287 287 285 283 283 282 282 281 281 280 282 280 278 274 280 281 278 278 279 281 281 285 285 283 285 287 288 289 291 293 292 292 293 292 290 287 288 291 294 293 292 292 295 295 293 294 295 297 298 300 302 303 304 305 305 307 310 311 312 312 313 313 313 314 312 308 304 308 307 305 309 309 312 314 315 315 316
288 290 289 287 287 285 285 284 284 284 285 285 283 287 284 281 280 278 278 277 277 274 275 278 278 279 276 281 281 285 286 282 283 286 287 288 288 290 290 290 291 291 292 292 291 292 292 292 291 290 295 294 295 294 295 296 296 297 299 300 302 301 301 302 305 307 308 309 310 313 312 312 313 311 310 306 305 303 303 305 307 308 310 312 313 314
287 288 288 286 285 284 286 286 285 283 283 285 283 280 285 282 279 278 272 275 272 269 270 276 277 278 276 277 284 283 283 282 288 289 290 290 289 289 289 289 289 289 289 290 291 293 292 295 295 294 296 295 294 295 296 295 295 296 297 298 300 297 297 299 301 303 305 307 308 309 310 310 311 311 309 309 309 306 306 306 307 306 306 306 308 309
286 287 286 288 287 287 286 287 286 286 282 284 283 286 280 273 270 274 269 275 273 269 278 277 278 278 279 281 283 284 285 284 283 286 286 289 290 289 290 289 289 288 287 289 291 292 293 294 294 295 295 295 296 296 294 294 293 294 295 297 300 301 297 298 297 300 302 303 305 306 307 308 309 308 308 308 308 308 307 307 306 305 305 305 305 306
283 283 286 289 289 288 289 286 283 284 283 283 286 281 277 271 269 267 263 262 267 272 275 279 278 278 280 282 286 289 289 286 285 285 285 286 287 287 289 289 287 287 286 288 288 292 293 294 294 293 294 294 294 293 293 292 293 294 294 295 299 299 294 295 297 298 300 301 303 303 305 306 306 306 306 307 308 307 307 307 306 306 306 306 306 306
278 280 285 288 286 288 288 288 290 287 285 285 283 286 282 272 269 268 265 273 272 271 272 274 275 274 277 283 286 285 286 285 284 284 284 283 284 285 286 285 284 285 287 286 291 294 295 296 294 295 294 294 293 293 293 293 293 293 295 294 296 297 295 295 296 297 298 300 300 301 302 303 303 305 305 306 306 306 305 305 305 305 305 305 306 306
283 280 284 286 286 288 289 289 287 287 286 283 280 283 281 280 277 270 266 265 264 269 270 273 275 277 282 285 285 285 284 286 285 285 285 286 285 284 284 286 286 285 287 290 293 295 295 294 293 295 296 295 294 293 293 293 293 294 295 294 295 296 295 295 295 296 297 299 299 299 300 301 301 302 302 303 303 304 304 304 304 304 304 304 305 304
280 281 284 284 286 287 288 287 288 288 285 285 283 279 281 281 279 271 268 270 271 269 271 269 277 280 281 285 286 282 285 286 285 285 287 288 285 285 289 289 288 291 291 292 294 294 295 294 294 294 294 295 295 295 294 294 293 294 294 294 295 294 293 294 295 296 296 297 297 298 298 299 300 300 301 303 303 303 302 302 303 303 303 302 302 304
283 281 284 285 287 288 287 286 286 284 287 284 279 283 283 282 281 278 274 266 263 269 270 271 276 277 275 280 282 284 285 286 283 284 284 286 285 289 290 291 290 291 292 293 293 293 293 292 292 292 293 292 293 293 293 293 292 293 294 294 295 294 296 295 294 295 295 296 297 298 298 298 299 300 301 301 302 302 301 301 301 300 300 302 302 301
285 280 284 284 286 288 286 288 289 288 286 284 281 285 285 279 278 276 272 268 267 265 265 268 272 273 277 281 280 283 284 286 285 284 285 288 289 290 292 292 291 291 292 293 293 294 294 293 292 292 293 293 292 292 292 292 293 293 293 293 294 295 295 295 294 294 294 294 296 297 297 297 298 298 299 300 300 299 300 300 300 300 301 300 300 300
286 280 281 285 286 287 287 287 284 285 286 285 286 284 284 280 276 274 276 271 273 267 264 268 269 277 278 280 280 283 283 287 283 283 285 288 289 291 292 292 293 293 293 293 294 293 292 292 291 291 291 292 292 292 292 293 294 294 293 293 293 293 294 293 293 293 294 294 294 295 295 295 296 297 298 298 298 298 298 299 299 299 299 300 299 299
284 282 276 284 286 286 284 285 285 287 283 281 282 281 285 280 282 280 277 275 275 266 265 265 268 272 278 280 283 286 283 282 284 286 286 287 288 290 293 293 293 292 293 293 292 292 291 291 290 291 290 290 290 291 292 292 292 292 293 293 292 292 293 294 293 293 294 293 293 293 294 295 295 295 295 295 296 297 297 298 297 298 299 296 297 297
283 282 280 282 282 283 283 285 285 286 287 286 286 283 286 281 278 276 277 276 267 272 268 263 274 273 280 280 285 286 285 282 281 285 288 286 288 290 292 292 292 293 292 291 290 289 289 289 290 290 290 290 290 291 291 291 291 292 292 291 291 292 293 292 293 293 293 293 293 293 293 293 292 293 293 293 293 294 294 295 295 295 293 295 297 295
286 282 283 278 282 285 285 286 284 284 285 285 285 284 286 283 281 274 274 276 271 273 270 267 269 274 281 281 281 283 282 281 281 283 286 287 288 289 290 291 291 291 291 290 288 289 288 288 288 288 288 289 289 290 289 290 291 291 290 290 290 290 292 291 291 291 291 292 292 292 290 290 291 290 290 291 292 291 292 292 292 292 293 294 295 293
290 282 279 279 280 281 284 285 284 283 286 287 285 282 283 285 284 282 275 276 278 271 272 269 268 276 280 280 281 281 280 280 280 281 287 288 288 288 290 289 290 290 289 287 288 288 288 287 288 289 290 290 290 290 290 290 290 290 291 290 290 291 290 291 290 289 289 289 290 289 290 290 289 290 289 290 291 291 291 291 291 290 291 292 292 292
285 283 284 275 274 278 280 285 284 284 285 282 282 282 285 281 279 277 276 273 272 276 277 276 272 275 281 281 282 282 282 284 284 283 285 290 289 290 289 288 288 287 288 288 288 288 288 289 289 289 289 289 289 289 290 289 289 290 290 290 290 290 290 290 289 289 289 289 290 290 290 290 289 289 289 289 289 289 290 290 290 290 290 291 291 292
286 282 283 278 276 274 273 272 277 281 284 282 278 281 284 285 280 280 278 275 275 273 277 271 276 279 279 282 285 284 283 285 286 285 285 285 291 290 288 287 288 287 288 287 288 288 288 288 287 288 288 289 288 289 289 289 288 288 288 289 288 289 288 289 288 288 289 289 290 290 289 289 289 289 289 289 289 289 289 289 289 290 290 290 291 291
281 282 285 285 283 281 283 284 284 285 282 281 282 283 283 284 283 284 279 276 279 277 276 279 282 283 283 284 284 286 284 286 288 287 289 290 287 287 286 285 286 287 287 287 287 288 287 288 288 287 287 288 288 288 288 288 289 289 288 288 288 288 288 288 288 289 289 289 289 289 289 289 289 289 289 289 289 289 289 289 289 289 289 289 289 290
282 283 284 284 285 286 284 282 283 287 285 285 283 282 283 284 283 283 282 282 282 277 275 280 282 281 283 283 283 283 284 284 288 290 290 288 289 288 288 285 288 287 287 286 287 287 287 287 287 287 287 287 287 288 288 288 288 288 288 288 288 288 288 288 288 289 289 289 289 289 289 288 288 288 288 288 288 289 289 289 289 289 289 288 289 289
285 284 285 283 284 284 279 282 283 285 285 285 285 283 282 283 282 282 284 286 282 282 281 285 282 282 285 285 287 286 287 289 289 290 291 289 287 285 286 287 287 286 286 286 287 286 286 287 286 286 287 287 287 287 287 287 287 287 288 288 288 288 287 287 288 288 289 289 289 289 288 288 288 288 288 288 288 288 289 289 289 288 288 288 289 289
287 282 284 284 284 284 281 281 283 285 283 283 284 284 285 283 283 285 286 287 284 284 286 284 282 284 287 286 289 289 289 291 289 286 285 287 287 286 287 287 287 287 287 287 287 287 286 286 286 286 286 286 287 286 287 287 287 287 287 287 288 288 287 287 287 287 288 288 288 288 288 288 288 288 288 289 289 289 288 289 288 288 288 288 288 288
287 282 287 283 281 282 282 282 282 283 283 282 282 284 284 285 285 285 286 287 286 285 286 283 280 282 285 286 288 288 287 288 286 287 289 289 286 287 287 287 287 287 287 287 286 286 286 286 286 286 286 286 286 286 286 286 286 287 287 287 287 287 287 286 287 287 287 288 287 287 288 288 288 287 288 288 288 288 288 288 288 288 288 288 288 288
286 281 282 281 279 278 279 281 281 281 281 280 280 282 283 283 282 284 284 287 284 284 285 282 282 284 288 287 288 287 285 287 289 289 289 288 287 287 287 286 286 287 287 287 286 286 286 286 286 286 286 286 286 286 286 286 286 287 287 286 287 286 286 286 286 287 287 287 287 287 287 287 287 287 287 287 287 287 287 287 287 287 287 288 288 288
284 283 281 279 279 278 278 279 279 280 279 276 279 282 285 285 287 287 287 286 286 288 284 282 284 290 287 289 289 287 287 288 287 288 288 287 287 287 287 286 286 286 286 285 285 285 285 286 286 286 285 286 286 286 286 285 286 286 286 286 286 285 286 286 286 286 287 287 287 287 287 286 286 286 286 287 286 286 286 286 286 286 286 287 287 287
283 285 280 281 278 274 275 277 278 277 273 277 287 289 287 285 285 284 284 286 287 287 287 289 290 288 286 286 288 288 288 289 291 290 289 290 288 286 284 286 286 286 285 285 285 285 285 285 285 285 286 285 285 285 285 285 286 286 285 285 285 285 286 285 286 285 286 286 286 286 286 286 286 286 286 286 286 286 285 285 286 286 286 286 286 286
283 282 278 276 277 274 275 276 276 273 276 287 284 287 289 289 288 287 288 288 289 288 289 288 288 285 286 288 290 291 292 290 283 287 286 286 288 289 287 286 286 286 285 285 285 285 285 285 285 285 285 285 285 284 285 285 285 285 285 285 285 285 285 285 285 286 286 286 286 286 286 285 285 285 285 285 285 285 285 285 285 285 286 286 286 286
282 283 278 278 277 277 275 275 272 274 280 282 284 285 285 286 285 285 285 287 286 286 288 288 290 291 289 287 287 288 287 286 286 285 285 285 286 288 287 287 286 286 286 286 286 285 285 285 285 285 285 284 284 285 285 285 285 284 285 284 285 285 284 284 285 285 285 285 285 285 285 285 285 285 285 285 284 284 285 285 285 285 286 285 286 286
285 283 280 279 279 277 275 277 277 280 281 283 284 284 285 283 283 284 281 285 289 288 288 289 290 291 288 287 286 284 285 286 288 287 286 285 285 286 288 287 287 286 286 285 285 285 285 285 285 285 284 284 284 284 285 284 284 284 284 284 285 285 285 284 284 285 285 285 285 285 285 285 284 284 284 284 284 284 284 284 285 285 285 285 285 285
287 286 283 283 279 279 275 272 274 274 276 281 285 285 288 287 289 289 286 284 287 288 290 290 289 290 289 286 285 285 286 289 286 287 286 286 285 286 286 286 286 285 285 285 284 284 284 284 284 284 284 284 284 284 284 284 283 283 283 284 284 284 284 285 284 285 284 284 284 284 284 284 284 283 283 283 283 283 284 284 284 284 284 284 284 284
287 286 283 284 280 280 278 276 276 275 279 285 284 286 287 287 289 286 283 282 287 287 289 289 289 290 288 287 284 286 288 287 288 289 287 285 285 286 285 285 284 284 284 285 285 284 283 284 284 284 283 283 283 284 283 283 283 283 283 284 284 284 283 283 283 283 283 283 284 284 284 283 283 282 282 282 282 282 282 283 283 284 284 284 284 284
286 285 285 282 281 280 280 278 277 277 278 283 281 283 284 286 290 288 278 280 289 285 288 288 289 289 288 288 287 288 289 286 288 288 287 286 285 284 285 284 284 283 283 283 283 283 283 283 283 282 282 282 282 283 282 283 283 282 283 283 283 282 282 282 282 283 283 283 283 283 282 282 281 281 281 281 282 282 282 283 283 283 283 283 283 283
284 284 285 282 284 284 283 279 279 280 283 283 283 283 284 289 291 283 279 285 287 285 286 289 289 291 290 287 288 287 289 287 287 287 286 285 284 283 283 283 283 283 283 282 282 283 282 282 282 282 282 282 282 282 282 282 281 281 282 282 281 281 281 282 282 282 282 282 282 281 281 281 281 280 281 281 281 282 282 282 282 282 282 282 282 282
284 284 284 285 283 282 283 281 282 282 284 284 281 285 287 290 282 282 287 284 284 284 283 285 286 284 286 287 288 285 283 283 286 286 285 285 284 283 283 282 282 282 281 281 281 281 281 280 280 280 280 281 281 281 281 280 279 280 280 279 279 280 280 280 280 281 280 280 280 280 280 279 280 280 280 280 280 280 280 281 281 281 281 281 281 280
284 282 280 282 284 284 283 281 281 278 286 287 287 287 287 286 286 288 284 283 283 283 284 284 284 285 287 284 284 283 284 284 285 285 284 284 283 282 282 282 281 281 280 280 279 280 280 279 279 279 279 280 279 280 279 278 277 278 278 278 279 278 278 278 279 279 279 279 279 279 279 279 279 279 279 279 279 279 279 280 280 280 280 280 280 280
288 283 282 283 287 280 281 278 280 286 286 288 291 286 285 288 287 286 288 284 284 283 284 284 285 286 287 286 284 284 284 284 283 283 283 282 282 281 281 281 280 280 279 279 279 278 277 277 277 277 278 278 278 278 277 276 274 275 275 275 276 275 275 276 278 279 279 279 279 278 278 278 278 278 278 278 278 278 278 278 279 279 280 280 280 280
288 285 287 283 287 284 282 285 288 287 289 287 285 286 287 288 285 287 288 288 286 285 284 285 286 286 287 287 286 286 285 285 284 284 283 281 281 280 280 279 279 278 278 277 276 276 275 276 275 276 276 276 275 275 275 274 272 272 272 273 273 273 274 276 277 278 278 278 278 277 277 276 276 276 277 277 277 277 277 277 278 278 279 279 279 279
284 285 286 286 286 286 287 286 285 283 284 285 282 282 281 283 284 285 287 287 286 286 286 286 286 286 286 287 286 285 285 284 283 283 282 281 280 280 279 278 277 277 276 275 274 274 274 274 273 273 273 273 273 272 272 271 271 269 270 272 272 273 274 276 277 278 278 277 276 276 275 275 275 276 276 276 276 276 276 276 276 277 277 278 278 279
284 283 286 284 284 286 283 285 284 285 281 281 281 280 280 280 282 284 286 287 286 285 285 286 287 287 287 287 287 285 283 283 282 281 281 280 279 278 278 277 276 275 274 273 273 273 272 272 271 271 270 270 271 270 269 269 269 269 270 271 273 274 275 276 277 276 275 274 274 274 275 275 275 275 275 275 274 275 275 275 275 276 276 277 277 277
283 284 285 283 283 285 284 283 281 279 278 279 279 281 282 281 281 282 284 284 285 284 285 285 285 285 286 285 285 284 283 282 281 279 279 278 278 277 276 275 274 273 273 272 272 271 271 270 268 268 268 267 268 268 267 267 268 269 270 271 274 274 275 275 274 273 272 272 273 273 274 274 274 273 272 272 272 272 273 274 275 275 275 275 276 276
282 286 280 283 285 280 281 280 279 280 280 280 279 279 281 281 280 281 282 282 283 282 280 279 280 282 283 283 283 282 280 280 280 279 277 277 276 275 274 273 272 271 271 270 270 269 268 267 266 266 265 265 266 265 265 266 268 270 271 273 274 275 273 272 272 271 271 271 272 272 272 271 270 270 270 270 270 271 272 272 273 274 274 276 277 277
282 282 281 282 276 276 282 282 280 280 279 283 283 282 280 281 281 281 280 281 281 280 280 278 276 276 278 280 281 281 279 277 276 276 275 275 273 272 270 269 269 269 268 268 267 266 265 264 263 262 262 263 264 264 265 266 268 270 272 273 273 272 271 270 269 269 269 270 270 269 269 268 268 269 269 269 269 270 271 274 276 276 275 275 278 279
283 282 281 280 281 281 285 283 285 288 286 284 286 283 281 280 280 280 280 281 280 280 279 277 275 275 275 273 274 277 276 275 273 273 272 271 269 269 268 267 267 266 266 266 264 263 263 262 262 261 261 262 263 263 265 267 268 270 270 269 269 269 268 268 268 268 268 268 267 267 267 267 267 268 268 268 269 269 270 270 272 276 277 277 277 278
Wind_Speed
1 6 7 9 10 9 6 4 5 4 7 6 5 5 3 4 1 3 3 2 0 1 4 4 5 6 12 12 12 12 1 5 7 10 10 9 9 9 9 9 9 9 12 2 4 5 6 7 7 6 6 7 8 9 10 11 12 12 11 10 12 9 8 9 9 9 9 10 10 9 10 11 8 6 5 6 8 9 8 7 6 7 6 5 7 8
3 6 9 6 6 8 7 9 9 9 5 7 6 5 1 2 2 1 0 2 2 1 2 2 3 10 13 12 12 9 3 11 11 10 11 12 10 9 9 10 10 9 2 3 5 6 5 6 4 3 5 5 8 9 9 12 12 9 8 11 10 7 9 10 11 9 9 10 10 9 10 10 9 8 7 6 5 6 7 10 10 8 8 8 7 7
3 10 6 6 4 8 6 5 4 7 7 4 6 4 3 4 3 2 1 2 3 2 5 2 3 10 11 11 11 8 10 8 5 6 7 5 8 8 9 9 8 6 7 3 6 6 7 7 7 5 4 6 8 4 9 9 8 9 9 10 8 7 9 9 9 9 10 8 7 8 5 6 5 4 5 5 3 3 6 6 6 6 6 7 7 7
4 5 6 4 7 10 4 4 9 8 7 7 6 6 5 2 4 2 3 0 3 1 1 1 4 11 8 7 12 11 7 7 5 7 9 6 10 12 12 6 6 8 7 7 8 9 6 7 8 7 6 6 5 6 5 6 8 7 7 7 7 7 8 8 9 10 7 6 4 4 3 1 3 4 3 3 3 3 5 7 7 7 8 7 6 8
6 1 0 9 5 10 7 2 8 6 3 1 4 4 4 3 3 2 3 1 0 1 2 0 3 8 4 5 5 1 3 4 5 6 6 7 8 9 9 9 8 12 9 9 10 8 5 6 7 7 6 5 5 5 6 6 7 6 8 8 9 8 9 8 9 10 7 6 4 4 3 3 3 2 2 3 5 7 8 8 8 12 10 11 11 10
2 1 3 6 4 4 7 3 4 8 2 1 4 6 5 5 7 0 2 4 3 1 3 2 3 3 4 7 9 9 8 8 2 5 7 7 5 4 7 8 6 7 6 9 10 6 6 7 8 7 6 5 5 5 5 5 5 6 6 7 7 7 7 8 9 9 8 8 8 6 6 6 4 6 5 9 11 9 8 10 9 7 7 8 8 7
2 1 1 7 7 5 6 6 5 5 6 3 4 5 4 8 8 7 4 3 1 1 2 2 3 4 6 6 5 4 8 11 7 3 7 6 6 5 6 6 7 8 8 6 6 7 7 6 4 4 3 2 2 4 4 3 5 5 6 7 8 8 7 7 8 9 8 8 8 10 10 9 9 9 9 8 6 8 7 6 7 7 6 7 8 7
2 1 4 4 5 6 5 4 4 9 8 5 1 6 8 9 8 6 6 2 1 1 1 4 3 1 5 8 5 5 6 9 9 8 7 6 6 6 6 6 6 6 6 6 6 5 5 5 4 3 4 3 3 3 2 1 3 6 7 7 8 6 7 7 8 9 9 10 9 9 10 9 9 11 11 9 8 6 5 7 8 6 6 6 6 6
4 4 3 5 1 4 8 4 5 6 7 2 2 4 6 7 5 7 6 5 1 1 5 2 2 0 4 8 4 4 3 6 8 7 6 6 6 5 5 6 6 5 4 4 2 2 3 3 4 3 4 5 4 3 3 1 4 5 5 6 6 7 7 6 8 9 8 8 9 9 9 9 9 9 8 4 4 6 5 7 5 6 6 6 6 6
2 5 6 6 8 7 2 2 0 6 6 1 5 8 8 8 7 5 5 5 1 2 5 3 3 3 7 7 6 3 1 8 7 3 4 3 4 4 5 6 6 5 5 2 3 4 3 3 3 3 2 4 4 3 2 3 4 4 5 6 6 6 6 6 7 8 8 8 7 8 9 11 9 7 5 2 4 4 2 5 6 6 6 6 6 6
1 3 4 3 3 2 5 3 1 3 4 10 4 9 7 8 5 4 7 3 3 1 6 3 4 1 4 5 6 3 3 4 3 2 2 3 3 3 3 3 6 6 6 5 5 2 2 2 2 2 6 4 5 5 5 5 5 4 5 6 5 5 3 4 6 7 8 8 8 9 9 10 10 8 6 5 5 3 3 5 6 6 7 5 6 6
1 1 1 0 3 4 3 5 6 3 6 5 3 5 8 5 6 5 5 5 2 5 3 2 2 1 6 4 3 7 5 4 3 4 1 1 4 4 4 5 6 6 6 6 5 4 4 4 5 5 7 6 5 5 6 5 4 5 4 5 5 2 1 2 3 4 5 6 6 7 7 8 8 7 6 7 7 6 8 7 7 5 4 5 5 4
2 3 1 3 3 7 4 10 5 1 4 5 7 8 8 1 4 2 2 2 5 5 1 3 1 1 8 9 3 6 7 5 8 6 4 1 5 6 5 5 5 5 6 5 4 3 3 5 5 6 4 5 6 5 5 4 3 3 4 4 4 1 1 1 1 3 4 4 6 6 6 7 5 5 6 7 7 6 7 6 6 5 6 6 5 6
3 1 1 1 2 4 5 11 2 1 1 4 10 8 7 2 2 3 3 1 5 5 4 1 1 3 4 9 11 14 11 6 6 8 6 3 6 8 8 6 8 7 5 4 3 1 2 3 3 2 3 3 3 3 3 2 3 3 3 3 2 2 1 1 1 2 3 5 5 4 5 5 5 6 6 6 7 6 6 5 6 6 6 6 7 7
6 3 6 7 3 2 1 3 11 8 10 6 1 7 8 7 6 4 3 4 5 5 3 4 1 6 4 3 1 7 7 6 5 5 3 4 6 8 9 6 6 5 3 3 1 2 3 2 1 2 4 5 5 5 5 5 4 4 4 2 2 1 2 1 3 3 4 5 5 4 4 5 4 5 5 5 5 5 6 5 5 6 5 6 7 7
6 3 2 3 2 0 7 1 3 6 6 0 3 4 5 6 5 2 3 3 1 0 1 1 5 4 4 1 6 4 5 8 5 5 2 4 4 1 5 4 3 3 2 1 2 3 2 1 2 5 7 7 6 6 5 6 4 5 4 3 1 1 1 2 3 4 4 4 4 4 6 6 5 5 4 5 5 5 5 5 5 6 6 6 6 6
4 4 2 6 3 1 1 0 0 1 8 4 4 3 3 2 11 7 2 1 1 4 5 1 7 6 8 8 4 1 1 4 2 2 1 4 0 1 1 1 0 0 1 1 4 3 4 4 6 6 6 6 6 7 7 6 5 4 4 3 3 2 1 2 3 3 3 3 2 4 5 5 5 5 7 7 7 7 4 4 5 6 6 6 6 6
10 3 2 3 1 1 0 0 2 6 1 9 2 7 2 2 6 5 3 2 4 3 7 2 7 5 2 6 4 1 3 6 4 2 2 3 1 4 2 3 3 3 3 2 1 0 3 4 5 5 5 5 6 5 6 6 4 3 4 4 4 3 3 3 3 3 3 3 3 5 6 5 5 5 6 6 7 5 4 5 5 5 5 7 6 5
7 3 0 1 0 3 1 0 5 2 3 3 3 4 6 2 2 2 5 1 1 2 4 3 3 5 6 7 2 3 7 7 6 1 2 4 3 4 4 3 2 2 2 4 4 5 6 7 7 7 6 4 4 3 4 4 4 5 5 5 4 5 4 5 4 3 3 1 2 3 5 6 6 6 6 5 5 4 5 6 5 6 6 6 5 5
1 5 1 1 2 1 2 2 9 2 3 2 3 4 1 3 2 4 6 3 5 4 2 6 3 6 7 7 5 4 9 10 4 3 5 6 6 6 6 6 6 6 5 5 7 6 6 6 6 6 7 7 7 7 6 6 5 8 7 7 7 5 3 4 5 4 3 3 2 3 4 6 6 5 5 5 4 5 5 6 6 6 6 7 5 6
4 1 4 1 2 2 3 4 10 12 10 2 2 3 1 1 2 5 2 3 4 5 6 2 4 4 7 8 7 8 6 5 8 9 6 5 5 5 7 9 6 5 5 5 5 5 6 5 6 7 6 5 5 5 7 8 8 7 7 9 8 9 9 8 6 5 4 2 2 2 4 5 5 5 4 3 3 4 5 5 5 5 6 3 6 5
3 2 7 2 2 5 5 1 1 4 5 9 11 12 12 10 5 5 6 3 2 3 4 5 9 6 10 3 9 8 7 2 6 8 9 5 6 7 6 5 5 5 4 4 4 4 4 5 5 5 6 6 8 9 9 8 7 9 9 7 9 9 9 9 9 7 6 4 3 3 3 5 4 3 3 3 3 4 5 5 5 6 4 6 7 5
5 3 9 5 6 5 1 1 2 1 0 1 2 6 5 2 6 4 6 6 3 0 5 3 0 9 7 3 4 6 4 5 3 5 6 7 7 7 6 4 1 1 2 3 3 3 3 3 3 4 6 6 6 6 6 7 7 7 7 9 8 8 9 7 7 7 6 6 6 6 5 5 6 6 5 5 5 5 6 6 6 5 6 6 6 5
5 5 5 2 1 2 2 1 1 1 1 1 3 1 5 9 8 8 3 6 8 2 2 1 1 8 5 1 4 6 4 3 4 4 7 8 6 6 5 4 1 1 1 1 2 3 4 4 4 7 7 8 8 7 7 7 7 7 8 8 8 9 10 10 9 9 8 7 6 6 7 7 6 7 6 6 5 6 7 6 6 5 5 6 6 6
5 4 9 3 3 2 3 1 1 2 1 4 5 5 4 3 6 3 5 1 3 10 9 8 7 6 4 3 2 1 3 2 3 4 6 10 7 6 6 4 1 1 2 4 5 5 6 7 8 6 6 6 7 7 7 8 8 7 7 7 8 8 8 8 8 8 7 5 5 7 7 7 7 7 6 6 5 6 6 6 6 5 6 6 6 6
3 4 9 9 11 9 6 5 8 11 13 4 1 4 7 10 9 6 5 3 5 3 7 5 7 7 6 3 2 2 0 1 1 2 1 3 7 8 4 3 1 1 3 3 5 6 7 5 5 6 6 6 5 4 5 5 5 6 6 6 5 5 6 7 7 6 6 4 7 8 9 8 7 7 7 6 6 6 6 6 5 5 5 5 7 6
3 1 6 10 13 15 15 12 1 9 7 6 8 10 7 5 5 4 6 5 10 4 8 8 7 1 4 4 4 4 3 7 6 3 7 9 7 6 6 4 1 1 1 3 4 4 4 6 5 3 3 3 3 2 2 2 2 2 3 4 5 4 4 5 5 5 3 5 8 8 8 7 7 7 7 6 6 6 5 6 6 5 6 5 5 6
3 3 7 8 11 12 7 3 5 10 10 9 8 8 9 11 9 9 10 12 6 11 7 9 9 7 11 7 6 6 6 4 6 10 8 6 7 8 6 2 4 2 1 2 3 5 5 3 2 3 3 3 2 1 0 1 1 1 2 4 4 4 4 4 4 4 3 7 9 8 7 6 5 6 6 5 6 6 6 5 5 5 5 5 5 6
6 8 7 6 10 7 2 5 7 6 9 10 13 11 12 13 12 14 16 14 11 11 16 16 9 10 13 8 11 11 11 11 13 14 12 7 3 3 4 5 4 4 3 3 4 3 4 5 3 0 1 2 2 2 1 2 3 3 2 1 3 2 3 4 2 6 8 9 10 9 7 7 6 5 6 5 5 6 6 6 6 6 5 5 5 5
4 5 5 6 10 8 3 4 3 8 3 4 9 14 15 15 16 18 17 16 13 14 17 5 12 18 14 11 13 12 11 10 5 3 4 5 8 7 4 5 7 7 7 6 5 4 4 4 4 4 3 4 5 5 4 4 4 4 4 4 2 2 4 5 7 8 8 9 8 7 7 7 7 7 7 8 9 9 8 7 7 7 7 6 6 6
5 4 6 4 5 7 5 1 1 4 6 6 4 8 12 15 17 19 18 18 13 14 12 2 3 12 7 7 7 4 4 1 1 5 9 9 5 7 8 7 8 7 6 5 5 5 4 5 4 3 7 6 5 3 3 3 3 3 3 5 6 7 7 6 7 7 7 7 6 6 6 7 8 7 8 8 8 8 9 10 9 9 9 9 8 8
4 3 2 4 6 5 1 7 4 3 2 1 3 7 11 13 13 14 15 14 11 12 13 4 7 15 7 10 6 4 4 6 10 9 8 6 7 8 9 8 8 9 7 6 6 5 4 3 5 7 6 4 4 4 5 6 5 5 7 6 7 7 7 7 7 7 8 7 7 7 8 8 8 8 8 8 8 8 8 7 7 8 8 8 9 9
5 6 5 5 7 6 2 1 5 5 3 3 7 12 20 19 19 14 9 1 8 14 12 11 17 18 4 11 11 7 7 8 6 6 6 6 6 8 9 9 9 8 8 8 7 5 4 5 5 5 4 4 5 6 6 5 6 7 6 7 6 6 6 7 7 7 7 7 7 8 8 8 8 8 8 8 7 7 6 6 6 6 6 7 7 6
4 7 6 4 7 3 2 3 4 6 9 12 12 17 17 17 17 11 8 14 12 10 11 15 15 5 6 7 10 9 10 11 12 7 3 8 9 8 4 6 8 8 7 6 5 6 5 5 4 3 3 3 3 3 3 3 4 5 5 5 5 5 5 5 6 5 5 6 6 6 6 7 7 8 8 8 7 7 6 6 7 7 7 6 6 7
8 6 5 2 4 3 1 2 5 9 12 8 2 5 15 17 14 17 18 18 17 14 10 8 8 6 11 11 13 13 12 4 3 2 2 2 6 9 10 9 9 9 9 8 7 5 5 5 4 4 4 4 3 3 4 5 4 4 4 4 5 4 5 5 5 5 6 6 5 6 6 7 7 8 8 8 7 7 6 6 7 7 6 6 6 7
8 9 4 1 4 5 3 3 5 9 5 3 2 2 1 5 5 7 11 12 7 8 11 15 16 16 9 7 4 2 3 2 3 4 1 1 5 10 12 11 10 9 9 6 8 6 5 4 4 4 3 2 4 4 5 5 5 5 5 5 5 5 5 5 6 6 6 7 7 7 7 7 8 8 8 8 7 6 7 6 6 8 7 6 6 6
8 5 4 5 3 7 6 9 8 4 6 2 3 3 11 11 9 12 12 16 17 14 16 17 20 16 5 6 4 3 4 3 2 1 1 1 4 3 9 10 9 8 8 6 6 6 3 3 4 3 2 4 4 5 6 5 5 5 5 5 5 5 4 4 6 7 7 7 8 8 8 7 8 8 8 8 9 9 8 9 10 9 6 9 9 8
5 10 4 7 4 6 6 1 1 2 10 9 9 1 0 5 13 14 10 9 5 11 16 16 17 16 9 5 6 6 5 5 6 8 3 1 4 9 6 8 7 7 7 6 5 5 5 4 4 4 4 5 5 5 4 5 4 4 3 3 3 3 3 5 8 8 9 9 9 9 9 9 9 9 10 9 10 11 10 9 8 7 6 8 11 12
0 2 1 8 3 6 3 6 6 8 11 9 6 4 5 5 10 6 5 11 7 10 13 16 16 12 9 11 8 8 8 9 12 9 8 7 5 6 11 7 7 6 6 6 6 7 5 4 4 4 4 4 6 6 5 4 3 3 4 5 5 5 7 8 9 10 10 11 10 9 9 8 8 8 9 10 9 9 11 10 9 9 8 8 8 10
5 3 3 3 5 5 7 9 10 4 4 2 2 2 4 6 11 10 4 9 10 6 10 11 13 14 12 12 14 13 12 11 14 7 9 8 8 6 8 10 8 7 6 5 5 5 5 3 5 5 6 7 6 5 5 4 5 4 6 7 6 8 9 9 9 8 8 8 9 8 8 8 9 9 9 11 11 10 9 8 9 9 9 10 8 9
6 2 6 11 10 11 11 5 2 5 3 3 3 3 5 7 11 8 15 7 1 5 4 11 15 16 10 12 12 12 10 4 3 12 12 10 10 8 6 5 7 7 7 6 6 5 5 5 5 6 5 4 5 4 5 5 6 7 7 7 7 7 8 8 8 8 9 9 9 9 9 8 8 11 11 8 10 11 10 8 9 11 10 10 10 9
5 4 2 5 8 10 10 11 10 3 5 6 1 7 6 8 7 13 4 0 4 4 1 4 5 2 7 10 9 2 3 3 10 12 12 10 10 8 8 7 7 7 5 6 6 6 5 4 4 4 5 5 7 6 5 5 5 6 6 6 7 8 8 9 8 8 8 8 8 8 8 9 9 7 9 9 9 11 12 9 8 9 10 9 9 11
11 9 9 11 6 2 3 7 4 12 4 7 11 2 3 6 5 3 3 1 1 4 5 2 5 5 8 5 5 9 10 9 12 12 11 10 10 9 7 7 7 6 6 5 7 6 5 5 5 5 5 5 6 6 6 6 7 7 7 6 8 9 9 9 8 8 8 8 8 8 9 8 9 10 9 10 10 10 12 11 10 10 9 9 10 11
6 7 3 5 7 10 11 11 10 3 4 7 11 8 4 8 3 6 7 2 1 3 4 4 1 5 6 13 13 10 11 13 9 11 10 8 8 8 7 7 6 6 6 6 6 6 4 5 5 5 6 7 8 7 8 8 7 7 7 8 9 9 8 8 8 8 7 7 8 9 10 10 11 10 9 9 10 10 11 12 11 11 10 8 9 10
6 9 5 8 4 7 5 5 2 5 8 5 1 0 3 1 3 4 3 5 7 5 4 5 7 5 8 12 13 15 11 9 12 10 11 9 8 7 8 6 7 7 7 7 7 6 5 7 6 6 6 7 8 8 8 8 8 8 8 8 9 9 9 9 9 8 9 9 9 10 11 12 10 9 9 8 8 10 11 12 11 12 12 10 10 10
3 2 0 3 4 1 2 2 1 0 2 3 1 0 1 1 1 1 5 7 3 4 7 9 8 10 10 12 16 6 10 11 11 9 9 9 8 7 7 7 7 7 7 6 5 7 4 5 4 5 6 6 7 7 7 7 7 8 9 9 8 8 8 9 10 10 10 11 11 11 11 13 12 9 8 9 8 8 9 10 11 11 12 11 10 10
3 1 1 2 1 8 7 5 6 3 1 1 1 0 0 1 2 1 3 3 7 7 7 5 10 11 12 9 14 14 11 9 11 8 8 8 8 7 7 7 6 6 5 6 6 5 4 5 5 6 7 6 6 6 7 7 6 5 7 8 8 8 9 8 10 11 11 12 12 11 11 12 11 12 12 10 9 9 10 9 9 10 12 11 11 11
5 3 3 3 3 8 5 2 2 2 3 3 3 2 3 2 1 1 1 3 6 6 6 7 8 10 8 11 12 15 12 9 12 10 8 7 7 6 6 5 5 5 5 6 5 5 4 5 5 5 5 5 6 6 6 6 6 6 7 7 8 8 8 9 10 11 12 13 11 10 10 11 14 14 12 12 11 11 11 10 8 9 12 13 12 11
2 6 5 6 7 1 4 2 2 2 2 4 5 6 3 4 5 5 6 8 9 12 10 7 4 5 7 10 10 13 12 7 8 10 10 7 6 6 5 5 4 4 4 4 5 5 5 4 4 2 3 3 4 4 5 5 6 7 9 9 8 9 10 10 11 11 11 11 9 10 10 10 10 10 11 12 12 10 10 11 12 12 14 13 10 10
4 7 2 4 2 3 10 8 7 4 4 6 9 11 7 6 6 9 7 8 9 12 10 13 8 6 6 6 9 12 14 10 7 8 9 7 6 6 6 5 4 4 3 3 4 3 4 3 2 2 3 3 3 5 6 6 7 7 7 8 10 10 10 11 11 10 9 8 9 10 11 11 10 11 11 11 12 13 15 14 17 14 13 16 19 22
8 6 7 7 8 9 9 5 10 8 3 4 7 8 9 9 9 12 12 13 8 7 12 16 13 7 7 5 2 8 12 12 10 7 9 7 6 5 5 5 4 3 4 3 3 3 2 2 2 1 2 2 3 4 5 6 7 6 8 10 10 10 10 9 9 9 8 9 9 10 11 11 11 10 10 11 11 12 14 16 16 17 20 20 23 27
Wind_Direction
115 139 177 190 193 186 182 158 157 169 141 119 78 94 159 162 285 279 282 278 359 102 242 234 268 274 274 269 273 279 302 284 270 268 261 260 262 259 259 251 251 246 249 279 270 272 246 245 238 235 219 222 220 218 209 207 211 208 206 194 213 202 190 195 198 199 197 203 204 217 228 233 225 219 218 215 219 214 214 207 212 215 212 215 215 206
72 149 220 204 190 182 160 130 110 76 60 131 130 136 182 184 164 212 130 352 327 146 294 43 324 272 262 273 269 275 315 270 253 251 254 256 253 259 256 261 250 252 320 308 295 284 285 265 269 277 227 201 207 221 205 211 214 208 200 204 209 167 188 198 199 199 202 204 204 199 210 216 225 231 225 223 207 218 224 222 214 214 213 200 185 196
158 199 215 204 145 96 94 97 79 121 111 55 136 144 110 255 237 300 316 323 333 98 264 28 325 274 269 262 268 252 249 249 236 219 240 245 269 264 259 254 268 285 276 280 268 277 275 298 304 288 244 228 228 216 203 217 203 200 202 210 192 184 187 198 196 195 208 205 205 205 209 201 215 217 214 222 207 193 204 209 220 213 211 203 180 174
189 276 233 156 145 114 56 84 100 76 69 112 96 103 193 239 139 239 267 360 358 93 312 242 308 281 280 278 262 264 237 265 270 264 265 240 252 255 258 275 291 284 276 275 263 268 293 299 291 298 280 250 240 237 234 205 206 201 207 198 184 186 187 190 196 201 203 199 197 195 167 162 182 198 209 210 231 218 227 233 222 234 229 229 230 202
187 260 341 142 155 136 129 123 124 118 125 354 128 132 134 156 229 149 187 142 309 20 61 76 283 297 322 327 324 330 333 307 289 328 286 259 239 263 291 290 253 262 268 271 271 263 277 295 292 291 284 306 259 235 220 200 197 195 198 190 184 182 187 189 188 191 176 156 146 113 68 72 72 41 141 185 221 217 223 231 229 236 236 240 241 240
273 329 152 114 117 95 116 136 187 130 100 64 229 171 188 172 136 204 78 117 24 325 4 42 323 311 303 286 244 285 343 322 302 338 297 296 296 296 287 280 289 267 243 241 257 280 277 279 292 295 299 276 263 261 242 212 202 186 181 176 179 178 182 187 185 177 169 175 167 149 158 175 183 200 185 205 211 212 205 212 221 222 214 219 225 225
198 353 126 163 148 137 142 167 210 147 163 122 249 161 139 141 126 125 124 78 76 150 355 7 173 266 325 314 283 325 322 295 315 316 292 308 318 320 292 290 287 281 285 277 282 273 279 279 296 297 306 302 265 260 270 256 204 184 175 177 177 178 181 177 175 172 170 175 184 188 195 199 201 210 220 220 223 219 221 222 221 219 213 215 220 221
92 77 78 75 105 128 127 188 230 150 129 213 245 131 112 115 134 161 122 119 165 255 268 51 97 213 305 287 276 312 319 303 315 322 324 336 340 332 323 311 301 286 265 270 285 283 257 265 252 282 306 322 330 292 312 182 169 172 177 169 175 173 172 178 170 175 181 184 189 191 201 204 209 213 223 209 218 218 216 214 222 218 216 215 223 227
124 160 160 144 98 132 185 211 184 149 133 223 218 152 131 139 138 117 98 105 116 27 277 336 347 295 256 267 309 359 326 303 302 306 314 329 332 329 335 341 334 318 278 236 268 329 339 332 318 300 327 337 356 23 42 160 176 166 157 159 157 167 169 173 173 173 188 189 188 194 199 212 221 221 228 199 209 212 210 222 225 227 225 219 221 226
323 167 203 158 150 194 237 327 190 152 107 252 131 92 95 88 75 97 102 84 358 77 269 209 11 204 279 273 323 338 276 269 261 270 288 284 292 313 344 348 349 1 19 13 248 271 297 308 308 283 264 22 19 338 48 65 93 115 130 141 152 166 172 167 174 178 186 189 181 196 204 213 222 221 230 153 198 214 191 221 223 225 228 225 227 228
234 326 193 92 185 166 128 37 90 29 116 131 132 86 50 42 39 39 62 88 69 330 250 264 307 163 302 268 229 142 210 206 214 296 285 294 310 318 321 340 356 1 357 1 343 335 315 291 313 334 72 36 27 33 55 59 69 94 118 139 145 163 148 164 175 178 186 192 193 203 206 213 222 219 213 204 224 190 203 225 229 223 228 229 232 231
23 356 78 296 66 120 103 78 26 77 99 124 104 129 83 6 12 30 347 33 120 263 261 277 287 323 181 291 303 237 287 235 173 166 165 312 314 309 319 330 344 351 347 337 2 9 7 40 35 47 56 41 38 51 49 49 51 69 86 111 111 57 81 137 164 183 198 197 212 220 216 220 226 220 214 222 231 206 219 226 231 228 236 241 245 254
51 112 218 12 222 123 132 89 357 1 351 83 95 95 114 220 34 280 9 242 206 199 238 333 190 5 238 231 244 288 266 256 225 207 201 239 304 320 318 338 345 322 332 341 340 5 40 64 59 62 51 52 47 45 27 23 30 52 82 115 130 147 37 56 45 185 227 218 224 222 227 235 231 223 220 228 232 218 218 222 229 219 229 233 236 234
272 265 47 290 57 227 150 121 135 135 291 116 140 146 115 122 97 217 272 282 313 289 271 288 288 261 253 281 241 240 246 218 220 225 234 237 278 298 300 333 336 322 310 309 299 316 75 78 66 67 94 96 93 69 46 27 58 55 85 93 123 104 32 102 119 222 238 240 244 240 238 240 229 231 221 227 232 231 224 213 222 215 219 227 230 231
145 282 243 152 207 157 180 161 174 152 156 205 34 146 173 139 156 203 192 191 212 198 282 275 89 233 126 243 212 219 253 272 249 250 232 236 249 266 293 308 294 305 323 314 322 70 74 63 101 125 132 123 106 94 68 54 35 57 62 68 89 4 343 142 199 179 215 243 254 250 245 247 230 237 233 231 225 234 228 223 227 228 225 220 225 219
211 208 283 320 264 144 165 245 113 100 51 9 165 76 96 214 134 128 204 143 153 146 21 249 217 190 180 267 271 235 285 277 279 284 261 246 237 284 303 326 330 315 301 321 56 64 40 27 60 62 52 49 61 70 78 59 44 59 55 73 122 170 261 239 215 213 207 224 227 240 242 233 224 233 240 250 235 234 223 233 217 234 224 227 231 231
29 245 350 308 47 71 168 176 355 131 171 220 104 192 206 107 98 102 58 2 91 43 253 163 315 287 296 312 275 326 341 270 335 329 329 274 59 25 38 6 304 287 263 154 96 78 68 61 47 47 50 44 40 40 37 27 17 37 45 56 23 337 296 251 234 234 218 231 245 263 255 251 236 223 228 236 242 236 225 220 228 228 233 231 227 236
159 205 358 58 146 345 203 142 98 34 145 103 176 218 170 138 126 127 189 349 62 178 264 101 221 286 33 263 336 347 185 258 277 287 268 264 38 88 101 123 178 192 205 173 171 113 61 62 57 40 46 48 49 43 31 27 1 47 51 39 19 347 341 313 271 270 258 282 314 302 291 273 249 241 242 240 250 250 243 238 231 235 241 231 228 220
119 77 344 339 126 289 8 350 49 27 42 140 200 182 114 202 217 308 93 214 185 260 267 301 286 272 196 242 351 237 205 234 236 254 201 184 117 133 138 156 219 234 143 113 97 66 43 35 25 24 23 9 30 35 49 39 59 64 48 37 36 344 318 310 308 295 316 6 300 285 277 272 264 248 247 248 248 246 235 243 237 231 234 247 235 226
61 140 278 342 136 265 360 114 188 197 342 23 87 85 316 101 153 129 198 175 124 239 67 290 52 240 204 220 197 247 210 214 147 162 195 188 163 158 154 161 165 161 134 99 70 50 39 27 24 24 18 16 10 13 14 24 32 38 31 36 26 29 11 348 354 333 331 300 220 260 268 264 250 247 241 235 233 240 237 247 244 244 247 243 232 228
160 109 161 264 305 88 175 201 210 168 151 64 114 171 116 39 230 102 27 125 184 173 185 208 315 274 255 215 199 220 217 205 169 176 206 185 181 180 166 158 161 153 113 89 74 56 35 25 19 19 16 11 8 22 23 25 24 19 24 28 25 22 9 8 6 7 2 348 274 220 255 265 259 258 244 250 241 249 256 258 253 252 254 272 247 232
89 179 162 141 69 218 241 273 234 175 193 172 166 185 173 131 134 160 245 36 97 123 221 137 249 269 269 179 202 218 242 191 214 179 177 174 176 174 177 174 152 132 101 83 70 58 51 36 25 17 21 24 29 20 19 7 17 23 26 20 17 17 18 358 350 352 340 335 334 356 312 294 289 300 323 313 303 278 279 273 265 263 276 252 261 231
140 123 106 166 207 187 226 337 269 266 320 184 165 223 165 164 95 110 195 231 62 360 98 159 326 270 243 207 222 223 225 231 223 171 185 175 178 181 191 178 193 166 122 103 105 115 103 85 55 54 47 38 34 25 20 14 20 17 19 22 20 21 2 357 338 337 341 344 346 350 344 331 343 350 348 345 319 306 288 282 274 270 264 265 270 257
90 98 81 339 324 312 329 313 51 228 117 9 287 110 140 199 187 181 167 172 150 151 109 360 241 256 290 234 235 258 255 256 259 193 185 169 179 190 188 205 204 108 37 83 103 75 62 60 58 51 40 32 25 19 17 15 12 12 19 17 13 13 356 355 353 346 348 335 329 358 12 5 352 357 352 339 319 307 300 294 289 281 265 269 274 269
159 235 130 127 34 350 343 345 357 350 36 215 199 195 200 83 77 131 105 57 103 211 170 133 228 268 273 314 286 270 309 280 262 219 197 164 181 185 197 211 229 266 61 54 49 48 49 49 48 45 40 38 27 23 16 13 10 3 357 8 12 1 348 343 339 334 322 306 8 24 25 8 358 358 346 329 314 299 295 292 291 287 272 278 273 265
168 172 145 153 170 169 194 195 219 217 210 191 239 167 186 163 143 130 178 177 190 268 148 160 238 254 279 321 341 330 273 249 260 229 259 234 172 175 212 244 261 36 71 68 71 60 54 48 44 44 38 34 28 20 14 9 0 348 342 348 357 347 339 322 312 304 301 323 42 34 25 9 3 359 340 325 316 304 300 297 289 285 276 260 270 274
172 153 191 187 191 201 203 203 205 76 65 177 214 173 183 179 170 119 100 113 209 199 176 229 223 150 210 242 264 248 196 187 181 201 196 197 219 202 193 195 285 334 71 90 85 80 81 59 51 51 45 46 38 13 359 357 341 329 332 343 336 321 293 294 310 294 274 28 53 45 27 8 360 347 337 331 317 309 308 302 294 289 284 271 263 275
85 184 221 204 219 218 207 153 197 153 172 198 142 182 176 166 174 162 174 214 153 90 258 237 212 199 230 221 229 234 234 232 217 193 191 201 201 192 210 158 116 86 37 53 73 91 101 113 93 57 49 64 63 2 278 249 247 317 15 6 340 321 320 319 270 258 6 43 44 41 21 7 340 338 329 320 318 317 314 309 304 294 284 278 274 267
149 199 220 182 235 228 130 171 164 158 181 178 182 165 167 177 168 182 210 216 127 197 224 233 171 213 232 186 216 211 196 196 202 206 200 179 131 190 166 131 133 151 164 153 152 128 102 78 58 307 200 144 127 120 99 66 33 18 345 324 320 290 299 282 312 20 30 33 35 18 2 354 355 338 340 330 329 336 333 327 315 310 301 289 279 268
131 229 195 179 220 223 225 156 204 159 165 137 177 178 176 167 186 196 213 213 180 216 226 223 159 217 225 184 204 212 208 203 200 87 92 157 186 183 191 162 156 163 168 163 157 149 137 144 183 196 145 75 60 43 37 28 23 13 16 360 331 336 352 1 19 28 26 31 19 2 357 353 353 356 349 356 353 349 341 336 335 328 324 315 296 289
157 252 139 152 201 242 218 183 144 187 155 187 201 183 176 182 192 200 210 221 211 237 244 158 209 265 244 175 214 234 208 111 72 168 197 197 150 176 189 176 165 167 171 159 145 136 149 181 183 111 65 55 46 42 39 34 18 360 10 3 0 4 353 10 20 31 31 24 6 357 352 359 357 351 357 348 341 340 343 339 337 335 330 328 324 315
161 240 50 117 185 264 248 183 183 82 59 120 147 174 190 187 200 213 211 214 191 210 228 218 264 258 251 153 206 187 154 174 205 208 202 198 194 180 191 180 168 171 168 161 155 159 159 121 81 66 60 44 31 32 26 15 4 16 14 354 2 353 347 7 16 19 17 7 1 3 1 356 349 351 346 344 339 334 327 324 324 325 323 322 322 321
177 143 153 161 185 222 326 182 123 111 69 298 234 204 198 201 203 210 222 202 198 198 206 199 228 239 172 175 188 204 176 209 219 213 210 208 201 189 191 181 173 171 164 163 161 151 128 102 89 82 64 48 27 24 13 1 8 10 353 352 339 345 3 7 9 8 10 2 359 358 353 348 346 339 336 336 328 320 320 316 313 311 314 311 301 304
139 153 174 179 174 229 330 124 126 99 212 225 217 209 183 195 203 197 205 217 222 177 208 208 227 235 151 192 182 197 205 214 213 215 191 179 185 202 188 165 159 156 153 150 149 134 122 105 90 78 79 58 27 8 347 355 7 335 323 319 330 0 4 11 3 11 3 352 353 346 340 340 335 334 328 324 323 324 321 323 318 312 303 300 304 298
166 164 174 167 141 184 246 123 98 211 235 226 321 142 190 203 186 196 214 215 216 211 230 257 265 238 192 191 194 199 208 220 39 120 129 219 176 167 160 157 153 153 149 142 121 108 108 114 100 82 55 35 16 1 10 9 12 343 345 352 359 1 360 8 357 7 1 353 347 344 343 344 338 333 330 327 327 326 323 318 313 311 308 304 299 298
165 158 151 76 114 60 83 157 206 234 230 316 263 205 208 171 179 186 252 254 242 208 209 232 237 237 205 208 232 268 182 136 77 48 32 314 183 157 146 157 157 147 131 133 120 116 107 94 93 75 59 11 35 14 22 5 350 4 351 342 4 355 356 357 1 358 354 350 351 350 345 342 336 330 327 326 325 324 323 320 312 313 313 303 295 281
155 101 141 186 196 179 179 197 224 347 350 267 237 213 170 167 159 177 217 244 227 205 196 215 231 238 202 198 172 125 114 92 117 316 20 88 121 129 139 138 142 130 122 115 104 103 98 93 67 48 52 38 35 27 11 353 355 355 347 360 354 358 347 0 3 357 351 346 344 345 341 339 333 328 329 329 329 330 331 331 328 324 322 317 313 310
159 169 218 171 225 139 131 190 343 249 245 237 224 278 91 162 173 184 180 261 238 203 201 208 225 230 210 159 146 152 145 132 214 242 187 130 125 115 97 103 99 102 102 107 86 81 67 58 58 50 62 42 30 17 3 348 352 342 349 350 342 356 2 11 8 356 350 344 342 340 340 337 337 333 333 333 333 329 325 322 314 311 320 314 313 312
104 95 101 170 195 134 182 209 209 208 233 234 223 188 187 168 142 110 145 245 251 199 194 199 220 228 196 175 166 145 138 198 227 212 172 157 132 119 114 105 100 100 95 90 93 82 73 58 67 68 56 51 33 4 355 346 347 356 10 7 4 9 15 12 2 355 347 340 336 335 335 333 334 332 327 326 321 322 318 318 315 309 310 303 300 297
153 169 117 152 202 202 183 208 227 210 245 256 229 235 197 141 118 102 180 246 247 130 183 187 201 219 211 178 162 174 175 215 230 211 154 145 138 128 123 124 113 101 91 91 71 86 86 81 70 56 50 39 16 348 351 351 2 13 14 6 3 11 13 2 354 339 332 329 329 330 332 332 331 327 328 323 318 316 312 309 311 310 311 306 304 303
173 180 197 207 200 212 207 244 327 293 269 238 213 177 161 162 132 164 220 237 237 192 210 173 192 213 194 168 162 188 216 225 155 128 134 133 112 99 89 93 102 103 99 83 75 72 67 58 61 61 54 38 12 360 360 9 10 12 7 359 7 11 4 351 340 338 333 332 330 330 331 331 332 325 321 317 311 309 307 309 306 308 309 306 305 301
188 167 194 197 216 206 210 214 228 259 233 164 312 167 177 119 202 218 218 154 149 181 253 205 193 118 134 169 185 155 122 142 111 114 124 129 122 119 117 114 104 87 82 86 81 73 70 65 62 56 46 33 23 12 16 18 14 6 359 359 6 1 353 343 338 334 331 329 329 325 326 325 321 318 312 312 312 310 306 306 300 295 297 296 294 294
182 175 187 193 193 212 186 229 221 244 242 126 128 80 275 173 236 168 153 347 173 173 143 146 156 186 139 124 116 128 125 119 126 126 124 124 121 122 118 108 99 96 86 79 61 52 64 66 48 42 40 27 28 21 23 18 14 5 357 358 351 352 343 336 330 327 327 325 324 325 324 324 325 323 321 315 312 307 304 306 305 296 291 289 293 293
173 188 176 214 184 196 196 202 205 208 106 195 152 188 210 219 178 168 140 116 202 162 160 131 121 163 154 136 139 133 131 120 111 124 114 109 109 107 101 100 98 89 84 74 75 53 47 55 40 34 28 30 24 24 22 16 12 355 353 344 346 341 331 326 324 317 320 324 328 330 330 328 324 318 313 310 310 307 302 305 306 303 297 297 294 297
197 199 170 200 182 192 208 214 236 176 181 203 77 208 233 137 28 155 127 140 153 208 180 132 145 136 140 133 130 136 131 136 134 137 128 132 126 122 114 104 94 89 77 69 54 40 37 36 24 24 23 27 20 24 18 14 5 350 344 334 337 323 323 320 319 322 327 333 335 334 327 321 316 312 309 308 310 308 309 307 310 306 304 304 299 293
334 197 55 117 210 117 304 180 308 8 250 235 98 353 288 316 349 79 156 133 208 156 171 158 149 139 138 140 125 122 131 139 128 122 121 123 116 107 101 94 85 79 75 69 55 42 34 33 33 31 12 7 15 21 10 8 1 352 335 326 315 311 314 320 323 330 334 334 330 327 323 317 315 310 307 309 307 302 296 299 303 301 300 298 293 292
248 151 120 172 246 165 235 186 195 217 338 308 294 279 227 235 250 250 181 169 148 150 126 130 143 143 144 148 133 134 137 140 124 119 116 114 107 107 105 101 90 84 76 69 53 43 31 42 30 23 7 355 355 8 356 358 347 324 309 312 317 320 319 320 339 334 331 329 326 322 321 318 319 321 320 321 316 308 302 297 295 294 292 289 291 293
261 179 177 206 174 182 234 233 255 301 242 243 195 191 220 199 66 14 85 107 114 96 106 122 127 122 133 131 140 134 137 138 131 133 130 129 130 120 116 112 111 97 75 71 60 55 61 57 47 20 5 345 343 354 340 334 325 314 309 310 325 325 343 348 341 335 331 326 320 320 322 321 320 320 314 312 314 309 306 299 291 288 286 292 293 296
204 129 207 188 199 307 355 275 257 354 297 242 224 243 228 162 135 111 117 122 126 119 111 76 51 120 130 133 130 127 125 136 139 144 141 139 133 136 130 121 100 91 76 62 56 55 61 48 45 16 345 325 337 340 330 328 329 325 334 336 334 356 354 340 336 329 320 317 320 320 321 315 313 310 308 305 306 296 289 294 296 290 283 271 265 268
92 196 201 116 110 197 209 214 155 152 247 242 224 208 174 173 152 138 139 133 143 134 132 115 85 56 89 114 142 139 138 141 143 141 141 139 132 124 119 112 109 105 92 81 76 75 76 54 61 10 354 338 343 339 330 333 328 324 330 351 357 354 346 337 328 319 317 320 320 317 315 312 307 304 300 298 300 303 300 283 275 271 276 288 288 277
190 196 149 182 183 217 230 209 182 203 223 229 203 166 160 169 160 155 167 160 158 146 144 130 123 108 104 72 46 137 140 147 149 135 126 127 121 112 112 118 124 123 108 84 84 71 72 52 40 38 3 339 337 329 323 328 315 338 9 3 351 348 338 324 319 315 314 317 314 312 309 306 303 301 299 295 298 300 301 305 304 289 279 273 281 286